Hourly Weather Barlogi

Today, 21 April, Wednesday

Time Temperature Precipitation Wind Pressure Humidity
00:00 +10°C° 0 mm 1 mps 748 mmHg 78%
01:00 +9°C° 0 mm 1 mps 748 mmHg 78%
02:00 +9°C° 0 mm 1 mps 748 mmHg 79%
03:00 +9°C° 0 mm 1 mps 747 mmHg 79%
04:00 +9°C° 0 mm 1 mps 747 mmHg 80%
05:00 +9°C° 0 mm 1 mps 747 mmHg 76%
06:00 +10°C° 0 mm 1 mps 747 mmHg 72%
07:00 +10°C° 0 mm 2 mps 747 mmHg 68%
08:00 +12°C° 0 mm 2 mps 747 mmHg 59%
09:00 +14°C° 0 mm 2 mps 747 mmHg 50%
10:00 +14°C° 0 mm 3 mps 747 mmHg 40%
11:00 +16°C° 0 mm 3 mps 747 mmHg 39%
12:00 +16°C° 0 mm 3 mps 746 mmHg 38%
13:00 +17°C° 0 mm 4 mps 746 mmHg 37%
14:00 +15°C° 0 mm 4 mps 746 mmHg 39%
15:00 +15°C° 0 mm 4 mps 746 mmHg 41%
16:00 +14°C° 0 mm 5 mps 746 mmHg 43%
17:00 +13°C° 0 mm 4 mps 746 mmHg 51%
18:00 +11°C° 0 mm 4 mps 746 mmHg 59%
19:00 +8°C° 0 mm 4 mps 746 mmHg 67%
20:00 +7°C° 0 mm 4 mps 746 mmHg 69%
21:00 +6°C° 0 mm 4 mps 746 mmHg 71%
22:00 +5°C° 0 mm 4 mps 747 mmHg 73%
23:00 +4°C° 0 mm 4 mps 746 mmHg 71%

Tomorrow, 22 April, Thursday

Time Temperature Precipitation Wind Pressure Humidity
00:00 +2°C° 0 mm 5 mps 746 mmHg 70%
01:00 +2°C° 0 mm 5 mps 746 mmHg 69%
02:00 +1°C° 0 mm 5 mps 746 mmHg 71%
03:00 0°C° 0 mm 5 mps 746 mmHg 73%
04:00 -1°C° 0 mm 6 mps 746 mmHg 75%
05:00 -1°C° 0 mm 6 mps 746 mmHg 72%
06:00 +1°C° 0 mm 6 mps 746 mmHg 69%
07:00 +2°C° 0 mm 7 mps 746 mmHg 67%
08:00 +3°C° 0.1 mm 7 mps 746 mmHg 64%
09:00 +4°C° 0.1 mm 7 mps 746 mmHg 61%
10:00 +5°C° 0.1 mm 8 mps 747 mmHg 58%
11:00 +5°C° 0.2 mm 8 mps 747 mmHg 52%
12:00 +6°C° 0.2 mm 8 mps 747 mmHg 47%
13:00 +7°C° 0.2 mm 9 mps 747 mmHg 42%
14:00 +6°C° 0 mm 8 mps 747 mmHg 45%
15:00 +5°C° 0 mm 8 mps 748 mmHg 49%
16:00 +4°C° 0 mm 8 mps 748 mmHg 53%
17:00 +4°C° 0 mm 7 mps 748 mmHg 56%
18:00 +3°C° 0 mm 7 mps 748 mmHg 60%
19:00 +2°C° 0 mm 6 mps 749 mmHg 64%
20:00 +2°C° 0 mm 6 mps 749 mmHg 65%
21:00 +2°C° 0 mm 6 mps 749 mmHg 66%
22:00 +2°C° 0 mm 5 mps 749 mmHg 67%
23:00 +1°C° 0 mm 5 mps 749 mmHg 67%

Day after tomorrow, 23 April, Friday

Time Temperature Precipitation Wind Pressure Humidity
00:00 +1°C° 0 mm 5 mps 749 mmHg 67%
01:00 +1°C° 0 mm 5 mps 749 mmHg 67%
02:00 0°C° 0 mm 5 mps 749 mmHg 68%
03:00 0°C° 0 mm 5 mps 749 mmHg 70%
04:00 0°C° 0 mm 5 mps 750 mmHg 71%
05:00 +1°C° 0 mm 5 mps 750 mmHg 69%
06:00 +2°C° 0 mm 5 mps 750 mmHg 66%
07:00 +2°C° 0 mm 5 mps 750 mmHg 64%
08:00 +4°C° 0 mm 6 mps 750 mmHg 54%
09:00 +5°C° 0 mm 6 mps 751 mmHg 45%
10:00 +6°C° 0 mm 7 mps 751 mmHg 35%
11:00 +6°C° 0 mm 7 mps 751 mmHg 35%
12:00 +6°C° 0 mm 7 mps 752 mmHg 36%
13:00 +6°C° 0 mm 7 mps 752 mmHg 36%
14:00 +6°C° 0 mm 7 mps 752 mmHg 36%
15:00 +5°C° 0 mm 7 mps 753 mmHg 36%
16:00 +5°C° 0 mm 6 mps 753 mmHg 36%
17:00 +4°C° 0 mm 6 mps 753 mmHg 40%
18:00 +3°C° 0 mm 5 mps 754 mmHg 45%
19:00 +3°C° 0 mm 4 mps 754 mmHg 49%
20:00 +3°C° 0 mm 4 mps 754 mmHg 54%
21:00 +1°C° 0 mm 4 mps 754 mmHg 58%
22:00 0°C° 0 mm 4 mps 754 mmHg 63%
23:00 0°C° 0 mm 4 mps 754 mmHg 65%

24 April, Saturday

Time Temperature Precipitation Wind Pressure Humidity
00:00 0°C° 0 mm 4 mps 754 mmHg 67%
01:00 0°C° 0 mm 4 mps 754 mmHg 68%
02:00 -1°C° 0 mm 4 mps 754 mmHg 71%
03:00 -1°C° 0 mm 4 mps 754 mmHg 73%
04:00 -1°C° 0 mm 4 mps 754 mmHg 75%
05:00 0°C° 0 mm 4 mps 754 mmHg 69%
06:00 +1°C° 0 mm 4 mps 754 mmHg 64%
07:00 +3°C° 0 mm 4 mps 754 mmHg 58%
08:00 +4°C° 0 mm 4 mps 754 mmHg 51%
09:00 +6°C° 0 mm 5 mps 754 mmHg 44%
10:00 +7°C° 0 mm 5 mps 754 mmHg 37%
11:00 +7°C° 0 mm 6 mps 754 mmHg 35%
12:00 +7°C° 0 mm 6 mps 754 mmHg 33%
13:00 +6°C° 0 mm 7 mps 754 mmHg 31%
14:00 +6°C° 0 mm 7 mps 754 mmHg 31%
15:00 +5°C° 0 mm 7 mps 754 mmHg 31%
16:00 +5°C° 0 mm 7 mps 754 mmHg 30%
17:00 +4°C° 0 mm 6 mps 755 mmHg 35%
18:00 +3°C° 0 mm 5 mps 755 mmHg 40%
19:00 +2°C° 0 mm 3 mps 755 mmHg 45%
20:00 +2°C° 0 mm 3 mps 755 mmHg 50%
21:00 +1°C° 0 mm 3 mps 755 mmHg 55%
22:00 0°C° 0 mm 3 mps 756 mmHg 60%
23:00 0°C° 0 mm 3 mps 756 mmHg 64%

25 April, Sunday

Time Temperature Precipitation Wind Pressure Humidity
00:00 -1°C° 0 mm 3 mps 755 mmHg 68%
01:00 -1°C° 0 mm 3 mps 755 mmHg 72%
02:00 -1°C° 0 mm 3 mps 755 mmHg 74%
03:00 -1°C° 0 mm 3 mps 755 mmHg 75%
04:00 -1°C° 0 mm 2 mps 755 mmHg 77%
05:00 0°C° 0 mm 3 mps 755 mmHg 70%
06:00 +2°C° 0 mm 3 mps 755 mmHg 64%
07:00 +3°C° 0 mm 4 mps 755 mmHg 57%
08:00 +4°C° 0 mm 4 mps 755 mmHg 52%
09:00 +5°C° 0 mm 5 mps 755 mmHg 46%
10:00 +6°C° 0 mm 5 mps 755 mmHg 40%
11:00 +5°C° 0.1 mm 6 mps 754 mmHg 40%
12:00 +5°C° 0.1 mm 6 mps 754 mmHg 39%
13:00 +5°C° 0.1 mm 7 mps 754 mmHg 39%
14:00 +5°C° 0 mm 6 mps 754 mmHg 38%
15:00 +5°C° 0 mm 6 mps 755 mmHg 37%
16:00 +4°C° 0 mm 6 mps 755 mmHg 36%
17:00 +3°C° 0 mm 5 mps 755 mmHg 41%
18:00 +3°C° 0 mm 4 mps 755 mmHg 46%
19:00 +2°C° 0 mm 3 mps 755 mmHg 50%
20:00 +2°C° 0 mm 3 mps 755 mmHg 53%
21:00 +1°C° 0 mm 3 mps 755 mmHg 56%
22:00 +1°C° 0 mm 3 mps 755 mmHg 59%
23:00 +1°C° 0 mm 3 mps 754 mmHg 63%

26 April, Monday

Time Temperature Precipitation Wind Pressure Humidity
00:00 +1°C° 0 mm 3 mps 754 mmHg 68%
01:00 +1°C° 0 mm 3 mps 754 mmHg 72%
02:00 +1°C° 0 mm 3 mps 754 mmHg 76%
03:00 0°C° 0 mm 3 mps 754 mmHg 79%
04:00 0°C° 0 mm 3 mps 754 mmHg 83%
05:00 +1°C° 0 mm 3 mps 754 mmHg 75%
06:00 +3°C° 0 mm 4 mps 754 mmHg 67%
07:00 +3°C° 0 mm 5 mps 754 mmHg 59%
08:00 +5°C° 0 mm 5 mps 754 mmHg 54%
09:00 +6°C° 0 mm 5 mps 754 mmHg 49%
10:00 +7°C° 0 mm 5 mps 754 mmHg 44%
11:00 +8°C° 0 mm 5 mps 754 mmHg 43%
12:00 +10°C° 0 mm 4 mps 754 mmHg 42%
13:00 +10°C° 0 mm 4 mps 754 mmHg 41%
14:00 +10°C° 0 mm 4 mps 754 mmHg 40%
15:00 +10°C° 0 mm 4 mps 754 mmHg 40%
16:00 +10°C° 0 mm 3 mps 753 mmHg 40%
17:00 +8°C° 0 mm 3 mps 753 mmHg 47%
18:00 +7°C° 0 mm 2 mps 753 mmHg 53%
19:00 +5°C° 0 mm 2 mps 753 mmHg 60%
20:00 +4°C° 0 mm 2 mps 753 mmHg 69%
21:00 +3°C° 0 mm 2 mps 753 mmHg 79%
22:00 +2°C° 0 mm 2 mps 753 mmHg 88%
23:00 +1°C° 0 mm 2 mps 752 mmHg 90%
Show more